Wetterdaten: Mittwoch, 18.01.2012
Datum Zeit Temp. a Sch. Temp. a Son. Temp. a Bod. Feuchte a. Luftdruck Regen Wind Richtung Richtung Sonnenschein Helligkeit Taupunkt Windchill
18.01.2012 00:02 -4,7 C -6,1 C -6,0 C 61 % 1030 hPa 0,0 l/m 0,0 m/s (0 Bft) S 180 0 min 0 lux -11,0 C -4,7 C
18.01.2012 00:07 -4,7 C -6,1 C -5,9 C 61 % 1030 hPa 0,0 l/m 0,0 m/s (0 Bft) S 180 0 min 0 lux -11,0 C -4,7 C
18.01.2012 00:12 -4,8 C -6,2 C -6,1 C 61 % 1030 hPa 0,0 l/m 0,0 m/s (0 Bft) S 180 0 min 0 lux -11,1 C -4,8 C
18.01.2012 00:17 -4,8 C -6,2 C -6,0 C 61 % 1030 hPa 0,0 l/m 0,0 m/s (0 Bft) S 180 0 min 0 lux -11,1 C -4,8 C
18.01.2012 00:22 -4,9 C -6,3 C -6,2 C 61 % 1030 hPa 0,0 l/m 0,0 m/s (0 Bft) S 180 0 min 0 lux -11,2 C -4,9 C
18.01.2012 00:27 -5,0 C -6,3 C -6,1 C 61 % 1030 hPa 0,0 l/m 0,0 m/s (0 Bft) S 180 0 min 0 lux -11,3 C -5,0 C
18.01.2012 00:32 -4,9 C -6,3 C -5,8 C 61 % 1030 hPa 0,0 l/m 0,0 m/s (0 Bft) S 180 0 min 0 lux -11,2 C -4,9 C
18.01.2012 00:37 -4,9 C -6,3 C -5,9 C 61 % 1030 hPa 0,0 l/m 0,0 m/s (0 Bft) S 180 0 min 0 lux -11,2 C -4,9 C
18.01.2012 00:42 -5,0 C -6,3 C -5,9 C 61 % 1030 hPa 0,0 l/m 0,0 m/s (0 Bft) S 180 0 min 0 lux -11,3 C -5,0 C
18.01.2012 00:47 -5,0 C -6,4 C -6,0 C 61 % 1030 hPa 0,0 l/m 0,0 m/s (0 Bft) S 180 0 min 0 lux -11,3 C -5,0 C
18.01.2012 00:52 -5,1 C -6,4 C -6,3 C 61 % 1030 hPa 0,0 l/m 0,0 m/s (0 Bft) S 180 0 min 0 lux -11,4 C -5,1 C
18.01.2012 00:57 -5,2 C -6,5 C -6,1 C 60 % 1030 hPa 0,0 l/m 0,0 m/s (0 Bft) S 180 0 min 0 lux -11,7 C -5,2 C
18.01.2012 01:02 -5,2 C -6,6 C -6,3 C 60 % 1030 hPa 0,0 l/m 0,0 m/s (0 Bft) S 180 0 min 0 lux -11,7 C -5,2 C
18.01.2012 01:07 -5,2 C -6,7 C -6,3 C 60 % 1030 hPa 0,0 l/m 0,0 m/s (0 Bft) S 180 0 min 0 lux -11,7 C -5,2 C
18.01.2012 01:12 -5,3 C -6,7 C -6,3 C 60 % 1030 hPa 0,0 l/m 0,0 m/s (0 Bft) S 180 0 min 0 lux -11,8 C -5,3 C
18.01.2012 01:17 -5,3 C -6,7 C -6,3 C 60 % 1030 hPa 0,0 l/m 0,0 m/s (0 Bft) S 180 0 min 0 lux -11,8 C -5,3 C
18.01.2012 01:22 -5,3 C -6,7 C -6,4 C 60 % 1030 hPa 0,0 l/m 0,0 m/s (0 Bft) S 180 0 min 0 lux -11,8 C -5,3 C
18.01.2012 01:27 -5,3 C -6,8 C -6,3 C 61 % 1030 hPa 0,0 l/m 0,0 m/s (0 Bft) S 180 0 min 0 lux -11,6 C -5,3 C
18.01.2012 01:32 -5,3 C -6,8 C -6,4 C 60 % 1030 hPa 0,0 l/m 0,0 m/s (0 Bft) S 180 0 min 0 lux -11,8 C -5,3 C
18.01.2012 01:37 -5,4 C -6,8 C -6,5 C 60 % 1030 hPa 0,0 l/m 0,0 m/s (0 Bft) S 180 0 min 0 lux -11,9 C -5,4 C
18.01.2012 01:42 -5,4 C -6,8 C -6,5 C 60 % 1030 hPa 0,0 l/m 0,0 m/s (0 Bft) S 180 0 min 0 lux -11,9 C -5,4 C
18.01.2012 01:47 -5,4 C -6,8 C -6,6 C 60 % 1030 hPa 0,0 l/m 0,0 m/s (0 Bft) S 180 0 min 0 lux -11,9 C -5,4 C
18.01.2012 01:52 -5,4 C -6,8 C -6,6 C 60 % 1030 hPa 0,0 l/m 0,0 m/s (0 Bft) S 180 0 min 0 lux -11,9 C -5,4 C
18.01.2012 01:57 -5,4 C -6,8 C -6,5 C 60 % 1030 hPa 0,0 l/m 0,0 m/s (0 Bft) S 180 0 min 0 lux -11,9 C -5,4 C
18.01.2012 02:02 -5,4 C -6,8 C -6,4 C 60 % 1030 hPa 0,0 l/m 0,0 m/s (0 Bft) S 180 0 min 0 lux -11,9 C -5,4 C
18.01.2012 02:07 -5,4 C -6,8 C -6,5 C 61 % 1030 hPa 0,0 l/m 0,0 m/s (0 Bft) S 180 0 min 0 lux -11,7 C -5,4 C
18.01.2012 02:12 -5,5 C -6,8 C -6,4 C 60 % 1030 hPa 0,0 l/m 0,0 m/s (0 Bft) S 180 0 min 0 lux -12,0 C -5,5 C
18.01.2012 02:17 -5,6 C -6,8 C -6,4 C 60 % 1030 hPa 0,0 l/m 0,0 m/s (0 Bft) S 180 0 min 0 lux -12,1 C -5,6 C
18.01.2012 02:22 -5,6 C -6,9 C -6,5 C 60 % 1030 hPa 0,0 l/m 0,0 m/s (0 Bft) S 180 0 min 0 lux -12,1 C -5,6 C
18.01.2012 02:27 -5,7 C -6,9 C -6,7 C 60 % 1030 hPa 0,0 l/m 0,0 m/s (0 Bft) S 180 0 min 0 lux -12,2 C -5,7 C
18.01.2012 02:32 -5,7 C -7,0 C -6,7 C 60 % 1030 hPa 0,0 l/m 0,0 m/s (0 Bft) S 180 0 min 0 lux -12,2 C -5,7 C
18.01.2012 02:37 -5,7 C -7,0 C -6,6 C 60 % 1030 hPa 0,0 l/m 0,0 m/s (0 Bft) S 180 0 min 0 lux -12,2 C -5,7 C
18.01.2012 02:42 -5,7 C -7,1 C -6,6 C 60 % 1030 hPa 0,0 l/m 0,0 m/s (0 Bft) S 180 0 min 0 lux -12,2 C -5,7 C
18.01.2012 02:47 -5,8 C -7,1 C -6,7 C 60 % 1030 hPa 0,0 l/m 0,0 m/s (0 Bft) S 180 0 min 0 lux -12,3 C -5,8 C
18.01.2012 02:52 -5,8 C -7,1 C -6,7 C 60 % 1030 hPa 0,0 l/m 0,0 m/s (0 Bft) S 180 0 min 0 lux -12,3 C -5,8 C
18.01.2012 02:57 -5,8 C -7,1 C -6,9 C 60 % 1030 hPa 0,0 l/m 0,0 m/s (0 Bft) S 180 0 min 0 lux -12,3 C -5,8 C
18.01.2012 03:02 -5,8 C -7,1 C -6,9 C 60 % 1030 hPa 0,0 l/m 0,0 m/s (0 Bft) S 180 0 min 0 lux -12,3 C -5,8 C
18.01.2012 03:07 -5,8 C -7,2 C -6,8 C 60 % 1030 hPa 0,0 l/m 0,0 m/s (0 Bft) S 180 0 min 0 lux -12,3 C -5,8 C
18.01.2012 03:12 -5,9 C -7,2 C -6,9 C 60 % 1030 hPa 0,0 l/m 0,0 m/s (0 Bft) S 180 0 min 0 lux -12,4 C -5,9 C
18.01.2012 03:17 -5,9 C -7,2 C -6,6 C 60 % 1030 hPa 0,0 l/m 0,0 m/s (0 Bft) S 180 0 min 0 lux -12,4 C -5,9 C
18.01.2012 03:22 -5,9 C -7,3 C -6,6 C 60 % 1030 hPa 0,0 l/m 0,0 m/s (0 Bft) S 180 0 min 0 lux -12,4 C -5,9 C
18.01.2012 03:27 -6,0 C -7,3 C -6,8 C 60 % 1030 hPa 0,0 l/m 0,0 m/s (0 Bft) S 180 0 min 0 lux -12,5 C -6,0 C
18.01.2012 03:32 -6,0 C -7,3 C -6,9 C 60 % 1030 hPa 0,0 l/m 0,0 m/s (0 Bft) S 180 0 min 0 lux -12,5 C -6,0 C
18.01.2012 03:37 -6,1 C -7,4 C -7,1 C 60 % 1030 hPa 0,0 l/m 0,0 m/s (0 Bft) S 180 0 min 0 lux -12,6 C -6,1 C
18.01.2012 03:42 -6,1 C -7,4 C -6,9 C 59 % 1030 hPa 0,0 l/m 0,0 m/s (0 Bft) S 180 0 min 0 lux -12,8 C -6,1 C
18.01.2012 03:47 -6,2 C -7,5 C -7,1 C 59 % 1030 hPa 0,0 l/m 0,0 m/s (0 Bft) S 180 0 min 0 lux -12,9 C -6,2 C
18.01.2012 03:52 -6,3 C -7,5 C -7,2 C 59 % 1030 hPa 0,0 l/m 0,0 m/s (0 Bft) S 180 0 min 0 lux -13,0 C -6,3 C
18.01.2012 03:57 -6,3 C -7,5 C -7,3 C 59 % 1030 hPa 0,0 l/m 0,0 m/s (0 Bft) S 180 0 min 0 lux -13,0 C -6,3 C
18.01.2012 04:02 -6,2 C -7,5 C -7,1 C 59 % 1030 hPa 0,0 l/m 0,0 m/s (0 Bft) S 180 0 min 0 lux -12,9 C -6,2 C
18.01.2012 04:07 -6,2 C -7,6 C -7,3 C 59 % 1030 hPa 0,0 l/m 0,0 m/s (0 Bft) S 180 0 min 0 lux -12,9 C -6,2 C
18.01.2012 04:12 -6,4 C -7,6 C -7,2 C 59 % 1030 hPa 0,0 l/m 0,0 m/s (0 Bft) S 180 0 min 0 lux -13,1 C -6,4 C
18.01.2012 04:17 -6,4 C -7,6 C -7,4 C 59 % 1030 hPa 0,0 l/m 0,0 m/s (0 Bft) S 180 0 min 0 lux -13,1 C -6,4 C
18.01.2012 04:22 -6,4 C -7,7 C -7,3 C 59 % 1030 hPa 0,0 l/m 0,0 m/s (0 Bft) S 180 0 min 0 lux -13,1 C -6,4 C
18.01.2012 04:27 -6,5 C -7,7 C -7,4 C 59 % 1030 hPa 0,0 l/m 0,0 m/s (0 Bft) S 180 0 min 0 lux -13,2 C -6,5 C
18.01.2012 04:32 -6,5 C -7,7 C -7,4 C 59 % 1030 hPa 0,0 l/m 0,0 m/s (0 Bft) S 180 0 min 0 lux -13,2 C -6,5 C
18.01.2012 04:37 -6,4 C -7,7 C -7,4 C 59 % 1030 hPa 0,0 l/m 0,0 m/s (0 Bft) S 180 0 min 0 lux -13,1 C -6,4 C
18.01.2012 04:42 -6,4 C -7,8 C -7,3 C 59 % 1030 hPa 0,0 l/m 0,0 m/s (0 Bft) S 180 0 min 0 lux -13,1 C -6,4 C
18.01.2012 04:47 -6,5 C -7,8 C -7,3 C 59 % 1030 hPa 0,0 l/m 0,0 m/s (0 Bft) S 180 0 min 0 lux -13,2 C -6,5 C
18.01.2012 04:52 -6,5 C -7,8 C -7,3 C 59 % 1030 hPa 0,0 l/m 0,0 m/s (0 Bft) S 180 0 min 0 lux -13,2 C -6,5 C
18.01.2012 04:57 -6,5 C -7,8 C -7,5 C 59 % 1030 hPa 0,0 l/m 0,0 m/s (0 Bft) S 180 0 min 0 lux -13,2 C -6,5 C
18.01.2012 05:02 -6,6 C -7,8 C -7,5 C 59 % 1030 hPa 0,0 l/m 0,0 m/s (0 Bft) S 180 0 min 0 lux -13,3 C -6,6 C
18.01.2012 05:07 -6,6 C -7,9 C -7,4 C 59 % 1030 hPa 0,0 l/m 0,0 m/s (0 Bft) S 180 0 min 0 lux -13,3 C -6,6 C
18.01.2012 05:12 -6,6 C -7,9 C -7,5 C 58 % 1030 hPa 0,0 l/m 0,0 m/s (0 Bft) S 180 0 min 0 lux -13,5 C -6,6 C
18.01.2012 05:17 -6,7 C -7,9 C -7,5 C 58 % 1030 hPa 0,0 l/m 0,0 m/s (0 Bft) S 180 0 min 0 lux -13,6 C -6,7 C
18.01.2012 05:22 -6,7 C -7,9 C -7,4 C 58 % 1030 hPa 0,0 l/m 0,0 m/s (0 Bft) S 180 0 min 0 lux -13,6 C -6,7 C
18.01.2012 05:27 -6,7 C -8,0 C -7,5 C 58 % 1030 hPa 0,0 l/m 0,0 m/s (0 Bft) S 180 0 min 0 lux -13,6 C -6,7 C
18.01.2012 05:32 -6,7 C -8,0 C -7,4 C 59 % 1030 hPa 0,0 l/m 0,0 m/s (0 Bft) S 180 0 min 0 lux -13,3 C -6,7 C
18.01.2012 05:37 -6,7 C -8,0 C -7,5 C 58 % 1030 hPa 0,0 l/m 0,0 m/s (0 Bft) S 180 0 min 0 lux -13,6 C -6,7 C
18.01.2012 05:42 -6,7 C -8,0 C -7,5 C 58 % 1030 hPa 0,0 l/m 0,0 m/s (0 Bft) S 180 0 min 0 lux -13,6 C -6,7 C
18.01.2012 05:47 -6,8 C -8,1 C -7,6 C 58 % 1030 hPa 0,0 l/m 0,0 m/s (0 Bft) S 180 0 min 0 lux -13,6 C -6,8 C
18.01.2012 05:52 -6,8 C -8,1 C -7,7 C 58 % 1030 hPa 0,0 l/m 0,0 m/s (0 Bft) S 180 0 min 0 lux -13,6 C -6,8 C
18.01.2012 05:57 -6,8 C -8,1 C -7,6 C 58 % 1030 hPa 0,0 l/m 0,0 m/s (0 Bft) S 180 0 min 0 lux -13,6 C -6,8 C
18.01.2012 06:02 -6,9 C -8,2 C -7,5 C 58 % 1030 hPa 0,0 l/m 0,0 m/s (0 Bft) S 180 0 min 0 lux -13,7 C -6,9 C
18.01.2012 06:07 -6,8 C -8,2 C -7,5 C 58 % 1030 hPa 0,0 l/m 0,0 m/s (0 Bft) S 180 0 min 0 lux -13,6 C -6,8 C
18.01.2012 06:12 -6,8 C -8,2 C -7,6 C 58 % 1030 hPa 0,0 l/m 0,0 m/s (0 Bft) S 180 0 min 0 lux -13,6 C -6,8 C
18.01.2012 06:17 -6,9 C -8,2 C -7,5 C 58 % 1030 hPa 0,0 l/m 0,0 m/s (0 Bft) S 180 0 min 0 lux -13,7 C -6,9 C
18.01.2012 06:22 -6,9 C -8,2 C -7,5 C 58 % 1030 hPa 0,0 l/m 0,0 m/s (0 Bft) S 180 0 min 0 lux -13,7 C -6,9 C
18.01.2012 06:27 -6,9 C -8,2 C -7,5 C 58 % 1030 hPa 0,0 l/m 0,0 m/s (0 Bft) S 180 0 min 0 lux -13,7 C -6,9 C
18.01.2012 06:32 -6,9 C -8,2 C -7,4 C 58 % 1030 hPa 0,0 l/m 0,0 m/s (0 Bft) S 180 0 min 0 lux -13,7 C -6,9 C
18.01.2012 06:37 -6,9 C -8,2 C -7,5 C 58 % 1030 hPa 0,0 l/m 0,0 m/s (0 Bft) S 180 0 min 0 lux -13,7 C -6,9 C
18.01.2012 06:42 -6,9 C -8,2 C -7,6 C 58 % 1030 hPa 0,0 l/m 0,0 m/s (0 Bft) S 180 0 min 0 lux -13,7 C -6,9 C
18.01.2012 06:47 -7,0 C -8,2 C -7,7 C 58 % 1030 hPa 0,0 l/m 0,0 m/s (0 Bft) S 180 0 min 0 lux -13,8 C -7,0 C
18.01.2012 06:52 -7,0 C -8,2 C -7,4 C 58 % 1030 hPa 0,0 l/m 0,0 m/s (0 Bft) S 180 0 min 0 lux -13,8 C -7,0 C
18.01.2012 06:57 -7,0 C -8,2 C -7,6 C 58 % 1030 hPa 0,0 l/m 0,0 m/s (0 Bft) S 180 0 min 0 lux -13,8 C -7,0 C
18.01.2012 07:02 -6,9 C -8,2 C -7,5 C 58 % 1030 hPa 0,0 l/m 0,0 m/s (0 Bft) S 180 0 min 0 lux -13,7 C -6,9 C
18.01.2012 07:07 -6,9 C -8,2 C -7,5 C 58 % 1030 hPa 0,0 l/m 0,0 m/s (0 Bft) S 180 0 min 0 lux -13,7 C -6,9 C
18.01.2012 07:12 -6,9 C -8,2 C -7,5 C 58 % 1030 hPa 0,0 l/m 0,0 m/s (0 Bft) S 180 0 min 0 lux -13,7 C -6,9 C
18.01.2012 07:17 -7,0 C -8,2 C -7,7 C 58 % 1030 hPa 0,0 l/m 0,0 m/s (0 Bft) S 180 0 min 0 lux -13,8 C -7,0 C
18.01.2012 07:22 -7,0 C -8,2 C -7,6 C 58 % 1030 hPa 0,0 l/m 0,0 m/s (0 Bft) S 180 0 min 0 lux -13,8 C -7,0 C
18.01.2012 07:27 -7,1 C -8,2 C -7,5 C 58 % 1030 hPa 0,0 l/m 0,0 m/s (0 Bft) S 180 0 min 0 lux -13,9 C -7,1 C
18.01.2012 07:32 -7,2 C -8,2 C -7,9 C 58 % 1030 hPa 0,0 l/m 0,0 m/s (0 Bft) S 180 0 min 0 lux -14,0 C -7,2 C
18.01.2012 07:37 -7,0 C -8,3 C -7,8 C 58 % 1029 hPa 0,0 l/m 0,0 m/s (0 Bft) S 180 0 min 0 lux -13,8 C -7,0 C
18.01.2012 07:42 -7,0 C -8,3 C -7,5 C 58 % 1029 hPa 0,0 l/m 0,0 m/s (0 Bft) S 180 0 min 0 lux -13,8 C -7,0 C
18.01.2012 07:47 -7,0 C -8,3 C -7,7 C 58 % 1029 hPa 0,0 l/m 0,0 m/s (0 Bft) S 180 0 min 0 lux -13,8 C -7,0 C
18.01.2012 07:52 -7,0 C -8,2 C -7,6 C 58 % 1029 hPa 0,0 l/m 0,0 m/s (0 Bft) S 180 0 min 0 lux -13,8 C -7,0 C
18.01.2012 07:57 -7,1 C -8,2 C -7,7 C 58 % 1029 hPa 0,0 l/m 0,0 m/s (0 Bft) S 185 0 min 49 lux -13,9 C -7,1 C
18.01.2012 08:02 -7,2 C -8,2 C -7,7 C 58 % 1029 hPa 0,0 l/m 0,0 m/s (0 Bft) S 185 0 min 120 lux -14,0 C -7,2 C
18.01.2012 08:07 -7,1 C -8,2 C -7,6 C 58 % 1029 hPa 0,0 l/m 0,0 m/s (0 Bft) S 180 0 min 153 lux -13,9 C -7,1 C
18.01.2012 08:12 -7,1 C -8,3 C -7,5 C 58 % 1029 hPa 0,0 l/m 0,0 m/s (0 Bft) S 180 0 min 336 lux -13,9 C -7,1 C
18.01.2012 08:17 -7,1 C -8,2 C -7,4 C 58 % 1030 hPa 0,0 l/m 0,0 m/s (0 Bft) S 180 0 min 448 lux -13,9 C -7,1 C
18.01.2012 08:23 -7,1 C -8,2 C -7,5 C 58 % 1030 hPa 0,0 l/m 0,0 m/s (0 Bft) S 180 0 min 581 lux -13,9 C -7,1 C
18.01.2012 08:27 -7,2 C -8,2 C -7,5 C 58 % 1030 hPa 0,0 l/m 0,0 m/s (0 Bft) S 180 0 min 820 lux -14,0 C -7,2 C
18.01.2012 08:32 -7,2 C -8,2 C -7,4 C 58 % 1030 hPa 0,0 l/m 0,0 m/s (0 Bft) S 180 0 min 1,22 klux -14,0 C -7,2 C
18.01.2012 08:37 -7,2 C -8,2 C -7,7 C 58 % 1030 hPa 0,0 l/m 0,0 m/s (0 Bft) S 180 0 min 1,71 klux -14,0 C -7,2 C
18.01.2012 08:42 -7,2 C -8,2 C -7,4 C 58 % 1030 hPa 0,0 l/m 0,0 m/s (0 Bft) S 180 5 min 3,42 klux -14,0 C -7,2 C
18.01.2012 08:47 -7,1 C -8,2 C -7,4 C 58 % 1030 hPa 0,0 l/m 0,0 m/s (0 Bft) S 180 5 min 4,12 klux -13,9 C -7,1 C
18.01.2012 08:52 -7,1 C -8,1 C -7,3 C 58 % 1030 hPa 0,0 l/m 0,0 m/s (0 Bft) S 180 5 min 5,62 klux -13,9 C -7,1 C
18.01.2012 08:57 -7,0 C -8,1 C -7,2 C 58 % 1030 hPa 0,0 l/m 0,0 m/s (0 Bft) S 180 5 min 6,13 klux -13,8 C -7,0 C
18.01.2012 09:02 -7,0 C -8,0 C -7,0 C 58 % 1030 hPa 0,0 l/m 0,0 m/s (0 Bft) S 180 0 min 5,91 klux -13,8 C -7,0 C
18.01.2012 09:07 -7,0 C -7,9 C -7,0 C 59 % 1030 hPa 0,0 l/m 0,0 m/s (0 Bft) S 180 0 min 5,25 klux -13,6 C -7,0 C
18.01.2012 09:12 -6,9 C -7,9 C -7,0 C 59 % 1030 hPa 0,0 l/m 0,0 m/s (0 Bft) S 180 0 min 5,07 klux -13,5 C -6,9 C
18.01.2012 09:17 -6,8 C -7,8 C -6,9 C 59 % 1030 hPa 0,0 l/m 0,0 m/s (0 Bft) S 180 0 min 5,90 klux -13,4 C -6,8 C
18.01.2012 09:22 -6,7 C -7,8 C -6,8 C 59 % 1030 hPa 0,0 l/m 0,0 m/s (0 Bft) S 180 0 min 7,31 klux -13,3 C -6,7 C
18.01.2012 09:27 -6,7 C -7,6 C -6,7 C 59 % 1030 hPa 0,0 l/m 0,0 m/s (0 Bft) S 180 0 min 8,55 klux -13,3 C -6,7 C
18.01.2012 09:32 -6,6 C -7,6 C -6,7 C 59 % 1030 hPa 0,0 l/m 0,0 m/s (0 Bft) S 180 0 min 9,2 klux -13,3 C -6,6 C
18.01.2012 09:37 -6,6 C -7,5 C -6,5 C 59 % 1030 hPa 0,0 l/m 0,0 m/s (0 Bft) S 180 0 min 9,6 klux -13,3 C -6,6 C
18.01.2012 09:42 -6,6 C -7,4 C -6,3 C 59 % 1030 hPa 0,0 l/m 0,0 m/s (0 Bft) S 180 0 min 9,6 klux -13,3 C -6,6 C
18.01.2012 09:47 -6,6 C -7,2 C -6,3 C 59 % 1030 hPa 0,0 l/m 0,0 m/s (0 Bft) S 180 0 min 10,5 klux -13,3 C -6,6 C
18.01.2012 09:52 -6,5 C -7,1 C -6,2 C 59 % 1030 hPa 0,0 l/m 0,0 m/s (0 Bft) S 175 0 min 10,5 klux -13,2 C -6,5 C
18.01.2012 09:57 -6,4 C -7,1 C -6,2 C 59 % 1030 hPa 0,0 l/m 0,0 m/s (0 Bft) S 170 0 min 11,9 klux -13,1 C -6,4 C
18.01.2012 10:02 -6,3 C -6,9 C -6,1 C 60 % 1030 hPa 0,0 l/m 0,0 m/s (0 Bft) S 170 0 min 14,1 klux -12,8 C -6,3 C
18.01.2012 10:07 -6,2 C -6,7 C -5,8 C 60 % 1030 hPa 0,0 l/m 0,0 m/s (0 Bft) S 170 5 min 18,8 klux -12,7 C -6,2 C
18.01.2012 10:12 -6,2 C -6,6 C -5,5 C 60 % 1030 hPa 0,0 l/m 0,0 m/s (0 Bft) S 170 5 min 20,1 klux -12,7 C -6,2 C
18.01.2012 10:17 -6,1 C -6,3 C -5,1 C 60 % 1029 hPa 0,0 l/m 0,0 m/s (0 Bft) S 170 5 min 25,0 klux -12,6 C -6,1 C
18.01.2012 10:22 -5,9 C -6,0 C -4,9 C 60 % 1029 hPa 0,0 l/m 0,0 m/s (0 Bft) S 170 5 min 24,4 klux -12,4 C -5,9 C
18.01.2012 10:27 -5,7 C -5,9 C -4,8 C 60 % 1029 hPa 0,0 l/m 0,0 m/s (0 Bft) S 170 5 min 24,3 klux -12,2 C -5,7 C
18.01.2012 10:32 -5,7 C -5,5 C -4,5 C 60 % 1029 hPa 0,0 l/m 0,0 m/s (0 Bft) S 170 5 min 26,9 klux -12,2 C -5,7 C
18.01.2012 10:37 -5,4 C -5,2 C -4,5 C 61 % 1029 hPa 0,0 l/m 0,0 m/s (0 Bft) S 170 5 min 24,6 klux -11,7 C -5,4 C
18.01.2012 10:42 -5,2 C -5,1 C -4,4 C 61 % 1029 hPa 0,0 l/m 0,0 m/s (0 Bft) S 170 5 min 22,8 klux -11,5 C -5,2 C
18.01.2012 10:47 -5,2 C -4,8 C -4,2 C 61 % 1029 hPa 0,0 l/m 0,0 m/s (0 Bft) S 170 5 min 21,6 klux -11,5 C -5,2 C
18.01.2012 10:52 -5,0 C -4,5 C -4,0 C 62 % 1029 hPa 0,0 l/m 0,0 m/s (0 Bft) S 170 5 min 21,1 klux -11,1 C -5,0 C
18.01.2012 10:57 -4,9 C -4,3 C -3,9 C 62 % 1029 hPa 0,0 l/m 0,0 m/s (0 Bft) S 170 5 min 20,9 klux -11,0 C -4,9 C
18.01.2012 11:02 -4,7 C -4,3 C -4,0 C 62 % 1029 hPa 0,0 l/m 0,0 m/s (0 Bft) S 170 0 min 19,7 klux -10,8 C -4,7 C
18.01.2012 11:07 -4,7 C -4,0 C -4,0 C 62 % 1029 hPa 0,0 l/m 0,0 m/s (0 Bft) S 170 5 min 23,3 klux -10,8 C -4,7 C
18.01.2012 11:12 -4,5 C -3,8 C -3,6 C 63 % 1029 hPa 0,0 l/m 0,0 m/s (0 Bft) S 170 5 min 22,8 klux -10,5 C -4,5 C
18.01.2012 11:17 -4,4 C -3,6 C -3,4 C 63 % 1029 hPa 0,0 l/m 0,0 m/s (0 Bft) S 175 5 min 24,5 klux -10,4 C -4,4 C
18.01.2012 11:22 -4,3 C -3,5 C -3,2 C 63 % 1029 hPa 0,0 l/m 0,0 m/s (0 Bft) S 175 5 min 26,7 klux -10,3 C -4,3 C
18.01.2012 11:27 -4,1 C -3,2 C -3,0 C 63 % 1029 hPa 0,0 l/m 0,0 m/s (0 Bft) S 175 5 min 27,5 klux -10,1 C -4,1 C
18.01.2012 11:32 -4,0 C -3,0 C -3,0 C 64 % 1029 hPa 0,0 l/m 0,0 m/s (0 Bft) S 175 5 min 28,4 klux -9,8 C -4,0 C
18.01.2012 11:37 -3,9 C -2,9 C -2,7 C 64 % 1029 hPa 0,0 l/m 0,0 m/s (0 Bft) S 175 5 min 32,8 klux -9,7 C -3,9 C
18.01.2012 11:42 -3,7 C -2,6 C -2,2 C 64 % 1029 hPa 0,0 l/m 0,0 m/s (0 Bft) S 175 5 min 36,4 klux -9,5 C -3,7 C
18.01.2012 11:47 -3,4 C -2,2 C -1,9 C 64 % 1029 hPa 0,0 l/m 0,0 m/s (0 Bft) S 175 5 min 39,7 klux -9,2 C -3,4 C
18.01.2012 11:52 -3,3 C -2,1 C -1,4 C 64 % 1029 hPa 0,0 l/m 0,0 m/s (0 Bft) S 170 5 min 36,3 klux -9,1 C -3,3 C
18.01.2012 11:57 -3,0 C -1,7 C -1,2 C 65 % 1029 hPa 0,0 l/m 0,0 m/s (0 Bft) S 175 5 min 37,2 klux -8,6 C -3,0 C
18.01.2012 12:02 -2,7 C -1,4 C -0,9 C 65 % 1029 hPa 0,0 l/m 0,0 m/s (0 Bft) S 175 5 min 33,0 klux -8,3 C -2,7 C
18.01.2012 12:07 -2,7 C -1,2 C -1,1 C 65 % 1029 hPa 0,0 l/m 0,0 m/s (0 Bft) S 175 5 min 30,5 klux -8,3 C -2,7 C
18.01.2012 12:12 -2,7 C -1,2 C -1,1 C 65 % 1029 hPa 0,0 l/m 0,0 m/s (0 Bft) S 175 5 min 26,7 klux -8,3 C -2,7 C
18.01.2012 12:17 -2,2 C -0,5 C -0,9 C 65 % 1028 hPa 0,0 l/m 0,0 m/s (0 Bft) S 175 5 min 27,7 klux -7,9 C -2,2 C
18.01.2012 12:22 -2,0 C -0,2 C -1,0 C 65 % 1028 hPa 0,0 l/m 0,0 m/s (0 Bft) S 175 5 min 26,3 klux -7,7 C -2,0 C
18.01.2012 12:27 -2,0 C -0,1 C -0,9 C 65 % 1028 hPa 0,0 l/m 0,0 m/s (0 Bft) S 175 0 min 24,0 klux -7,7 C -2,0 C
18.01.2012 12:32 -1,9 C 0,1 C -0,8 C 65 % 1028 hPa 0,0 l/m 0,0 m/s (0 Bft) S 175 5 min 27,0 klux -7,6 C -1,9 C
18.01.2012 12:37 -1,7 C 0,3 C -0,6 C 65 % 1028 hPa 0,0 l/m 0,0 m/s (0 Bft) S 175 5 min 28,3 klux -7,4 C -1,7 C
18.01.2012 12:42 -1,6 C 0,5 C -0,6 C 65 % 1028 hPa 0,0 l/m 0,0 m/s (0 Bft) S 175 5 min 27,5 klux -7,3 C -1,6 C
18.01.2012 12:47 -1,4 C 0,7 C -0,4 C 65 % 1028 hPa 0,0 l/m 0,0 m/s (0 Bft) S 170 5 min 29,4 klux -7,1 C -1,4 C
18.01.2012 12:52 -1,1 C 1,0 C -0,1 C 65 % 1028 hPa 0,0 l/m 0,2 m/s (0 Bft) S-SW22.5 205 5 min 30,9 klux -6,8 C -1,1 C
18.01.2012 12:57 -1,1 C 1,3 C -0,1 C 65 % 1028 hPa 0,0 l/m 0,0 m/s (0 Bft) SW 225 5 min 28,8 klux -6,8 C -1,1 C
18.01.2012 13:02 -0,8 C 1,4 C 0,0 C 64 % 1028 hPa 0,0 l/m 0,0 m/s (0 Bft) S-SW 210 5 min 29,7 klux -6,7 C -0,8 C
18.01.2012 13:07 -0,6 C 1,6 C 0,1 C 64 % 1028 hPa 0,0 l/m 0,0 m/s (0 Bft) S-SW 210 5 min 29,7 klux -6,5 C -0,6 C
18.01.2012 13:12 -0,5 C 1,9 C 0,1 C 64 % 1028 hPa 0,0 l/m 0,0 m/s (0 Bft) SW 215 5 min 29,7 klux -6,5 C -0,5 C
18.01.2012 13:17 -0,5 C 1,9 C 0,1 C 64 % 1028 hPa 0,0 l/m 0,3 m/s (0 Bft) SW 215 0 min 23,7 klux -6,5 C -0,5 C
18.01.2012 13:22 -0,3 C 2,1 C 0,3 C 63 % 1028 hPa 0,0 l/m 0,5 m/s (1 Bft) SW45 235 5 min 24,2 klux -6,5 C -0,3 C
18.01.2012 13:27 -0,3 C 2,2 C 0,5 C 63 % 1028 hPa 0,0 l/m 0,0 m/s (0 Bft) SW 215 0 min 22,8 klux -6,5 C -0,3 C
18.01.2012 13:32 -0,1 C 2,5 C 0,4 C 63 % 1028 hPa 0,0 l/m 0,4 m/s (1 Bft) SW22.5 225 0 min 20,3 klux -6,3 C -0,1 C
18.01.2012 13:37 0,0 C 2,5 C 0,4 C 62 % 1028 hPa 0,0 l/m 0,0 m/s (0 Bft) SW 225 0 min 20,0 klux -6,4 C 0,0 C
18.01.2012 13:42 0,1 C 2,6 C 0,4 C 62 % 1028 hPa 0,0 l/m 0,1 m/s (0 Bft) SW 225 0 min 20,1 klux -6,3 C 0,1 C
18.01.2012 13:47 0,1 C 2,6 C 0,2 C 62 % 1027 hPa 0,0 l/m 0,2 m/s (0 Bft) SW 225 0 min 20,4 klux -6,3 C 0,1 C
18.01.2012 13:52 0,2 C 2,6 C 0,2 C 62 % 1027 hPa 0,0 l/m 0,1 m/s (0 Bft) SW 220 0 min 20,0 klux -6,2 C 0,2 C
18.01.2012 13:57 0,3 C 2,7 C 0,3 C 62 % 1027 hPa 0,0 l/m 1,1 m/s (1 Bft) SW22.5 215 5 min 24,1 klux -6,1 C 0,3 C
18.01.2012 14:02 0,4 C 2,8 C 0,4 C 62 % 1027 hPa 0,0 l/m 1,7 m/s (2 Bft) SW22.5 220 5 min 26,8 klux -6,0 C 0,4 C
18.01.2012 14:07 0,5 C 2,8 C 0,5 C 62 % 1027 hPa 0,0 l/m 2,2 m/s (2 Bft) W-SW22.5 240 5 min 26,8 klux -5,9 C -1,0 C
18.01.2012 14:13 0,5 C 2,8 C 0,5 C 62 % 1027 hPa 0,0 l/m 2,2 m/s (2 Bft) W-SW22.5 240 6 min 26,8 klux -5,9 C -1,0 C
18.01.2012 14:18 0,7 C 3,0 C 0,5 C 62 % 1027 hPa 0,0 l/m 2,7 m/s (2 Bft) W45 260 5 min 21,0 klux -5,7 C -2,3 C
18.01.2012 14:23 0,7 C 3,1 C 0,4 C 62 % 1027 hPa 0,0 l/m 1,8 m/s (2 Bft) SW22.5 235 5 min 20,9 klux -5,7 C 0,5 C
18.01.2012 14:28 0,8 C 3,2 C 0,4 C 62 % 1027 hPa 0,0 l/m 2,2 m/s (2 Bft) W-SW22.5 250 5 min 20,0 klux -5,6 C -0,6 C
18.01.2012 14:32 0,8 C 3,2 C 0,5 C 62 % 1027 hPa 0,0 l/m 0,4 m/s (1 Bft) W-SW45 250 0 min 18,0 klux -5,6 C 0,8 C
18.01.2012 14:37 0,9 C 3,3 C 0,5 C 62 % 1027 hPa 0,0 l/m 0,4 m/s (1 Bft) W-SW45 250 0 min 16,8 klux -5,5 C 0,9 C
18.01.2012 14:42 0,9 C 3,3 C 0,5 C 62 % 1027 hPa 0,0 l/m 2,1 m/s (2 Bft) SW22.5 235 0 min 15,9 klux -5,5 C -0,2 C
18.01.2012 14:47 0,9 C 3,3 C 0,7 C 62 % 1027 hPa 0,0 l/m 2,7 m/s (2 Bft) SW45 225 0 min 14,2 klux -5,5 C -2,3 C
18.01.2012 14:52 1,0 C 3,3 C 0,6 C 61 % 1027 hPa 0,0 l/m 5,8 m/s (4 Bft) W-SW45 240 0 min 12,7 klux -5,7 C -8,7 C
18.01.2012 14:57 1,0 C 3,2 C 0,6 C 60 % 1027 hPa 0,0 l/m 3,3 m/s (2 Bft) W-SW22.5 240 0 min 12,3 klux -5,9 C -3,6 C
18.01.2012 15:02 1,0 C 3,2 C 0,6 C 61 % 1027 hPa 0,0 l/m 1,9 m/s (2 Bft) W-SW22.5 240 0 min 12,0 klux -5,7 C 0,7 C
18.01.2012 15:07 1,0 C 3,2 C 0,5 C 61 % 1027 hPa 0,0 l/m 1,9 m/s (2 Bft) W-SW22.5 240 0 min 11,9 klux -5,7 C 0,7 C
18.01.2012 15:12 1,0 C 3,2 C 0,5 C 61 % 1027 hPa 0,0 l/m 1,9 m/s (2 Bft) W-SW22.5 240 0 min 11,9 klux -5,7 C 0,7 C
18.01.2012 15:17 1,0 C 3,1 C 0,5 C 61 % 1027 hPa 0,0 l/m 3,1 m/s (2 Bft) SW22.5 235 0 min 10,2 klux -5,7 C -3,1 C
18.01.2012 15:22 1,0 C 3,1 C 0,5 C 61 % 1027 hPa 0,0 l/m 3,1 m/s (2 Bft) W-SW45 240 0 min 10,3 klux -5,7 C -3,2 C
18.01.2012 15:27 1,0 C 3,1 C 0,5 C 61 % 1027 hPa 0,0 l/m 3,9 m/s (3 Bft) W-SW45 250 0 min 9,9 klux -5,7 C -5,3 C
18.01.2012 15:32 1,0 C 3,1 C 0,2 C 61 % 1027 hPa 0,0 l/m 4,9 m/s (3 Bft) W-SW45 240 0 min 8,81 klux -5,7 C -7,2 C
18.01.2012 15:37 1,0 C 3,0 C 0,4 C 61 % 1027 hPa 0,0 l/m 2,1 m/s (2 Bft) SW22.5 225 0 min 7,79 klux -5,7 C -0,0 C
18.01.2012 15:42 1,0 C 3,0 C 0,2 C 61 % 1027 hPa 0,0 l/m 1,9 m/s (2 Bft) SW22.5 230 0 min 7,25 klux -5,7 C 0,6 C
18.01.2012 15:47 1,0 C 2,9 C 0,2 C 61 % 1026 hPa 0,0 l/m 3,1 m/s (2 Bft) SW67.5 235 0 min 6,57 klux -5,7 C -3,1 C
18.01.2012 15:52 1,0 C 2,8 C 0,3 C 61 % 1026 hPa 0,0 l/m 5,9 m/s (4 Bft) W-SW67.5 240 0 min 6,12 klux -5,7 C -8,8 C
18.01.2012 15:57 0,9 C 2,8 C 0,2 C 63 % 1027 hPa 0,0 l/m 3,2 m/s (2 Bft) W-SW45 240 0 min 5,36 klux -5,3 C -3,5 C
18.01.2012 16:02 0,8 C 2,6 C 0,1 C 63 % 1027 hPa 0,0 l/m 3,4 m/s (3 Bft) W-SW67.5 240 0 min 4,79 klux -5,4 C -4,4 C
18.01.2012 16:07 0,8 C 2,6 C 0,0 C 63 % 1027 hPa 0,0 l/m 3,2 m/s (2 Bft) SW45 235 0 min 3,90 klux -5,4 C -3,7 C
18.01.2012 16:12 0,8 C 2,6 C 0,0 C 63 % 1027 hPa 0,0 l/m 3,2 m/s (2 Bft) SW45 235 0 min 3,90 klux -5,4 C -3,7 C
18.01.2012 16:17 0,8 C 2,3 C 0,0 C 63 % 1026 hPa 0,0 l/m 4,1 m/s (3 Bft) W-SW45 245 0 min 2,81 klux -5,4 C -5,9 C
18.01.2012 16:22 0,8 C 2,3 C 0,0 C 63 % 1026 hPa 0,0 l/m 5,0 m/s (3 Bft) W45 260 0 min 2,23 klux -5,4 C -7,6 C
18.01.2012 16:27 0,8 C 2,2 C -0,2 C 63 % 1026 hPa 0,0 l/m 4,2 m/s (3 Bft) W-SW45 250 0 min 1,77 klux -5,4 C -6,1 C
18.01.2012 16:32 0,8 C 2,1 C -0,2 C 63 % 1026 hPa 0,0 l/m 4,4 m/s (3 Bft) W-SW45 245 0 min 1,40 klux -5,4 C -6,6 C
18.01.2012 16:37 0,5 C 1,9 C -0,1 C 65 % 1026 hPa 0,0 l/m 5,4 m/s (3 Bft) W-SW22.5 255 0 min 1,00 klux -5,3 C -8,7 C
18.01.2012 16:42 0,5 C 1,9 C 0,0 C 65 % 1026 hPa 0,0 l/m 5,9 m/s (4 Bft) W-SW45 245 0 min 808 lux -5,3 C -9,5 C
18.01.2012 16:47 0,5 C 1,8 C -0,1 C 65 % 1026 hPa 0,0 l/m 5,4 m/s (3 Bft) W-SW67.5 255 0 min 584 lux -5,3 C -8,7 C
18.01.2012 16:52 0,5 C 1,7 C -0,1 C 65 % 1026 hPa 0,0 l/m 5,0 m/s (3 Bft) W67.5 260 0 min 410 lux -5,3 C -8,0 C
18.01.2012 16:57 0,5 C 1,7 C -0,1 C 65 % 1026 hPa 0,0 l/m 5,1 m/s (3 Bft) W-SW67.5 255 0 min 272 lux -5,3 C -8,3 C
18.01.2012 17:02 0,5 C 1,7 C -0,2 C 65 % 1026 hPa 0,0 l/m 6,4 m/s (4 Bft) W-SW45 250 0 min 179 lux -5,3 C -10,3 C
18.01.2012 17:07 0,5 C 1,6 C -0,2 C 65 % 1026 hPa 0,0 l/m 4,4 m/s (3 Bft) W-SW45 250 0 min 108 lux -5,3 C -6,8 C
18.01.2012 17:12 0,5 C 1,6 C -0,2 C 65 % 1026 hPa 0,0 l/m 5,5 m/s (3 Bft) W-SW45 250 0 min 108 lux -5,3 C -8,8 C
18.01.2012 17:17 0,5 C 1,6 C -0,2 C 65 % 1026 hPa 0,0 l/m 3,6 m/s (3 Bft) W-SW45 250 0 min 32 lux -5,3 C -5,0 C
18.01.2012 17:22 0,5 C 1,5 C -0,2 C 65 % 1026 hPa 0,0 l/m 4,2 m/s (3 Bft) W-SW45 250 0 min 20 lux -5,3 C -6,5 C
18.01.2012 17:27 0,5 C 1,5 C -0,1 C 65 % 1026 hPa 0,0 l/m 4,7 m/s (3 Bft) W22.5 260 0 min 14 lux -5,3 C -7,4 C
18.01.2012 17:32 0,5 C 1,5 C -0,1 C 65 % 1026 hPa 0,0 l/m 5,4 m/s (3 Bft) W45 260 0 min 11 lux -5,3 C -8,8 C
18.01.2012 17:37 0,5 C 1,5 C -0,1 C 65 % 1026 hPa 0,0 l/m 3,1 m/s (2 Bft) W-SW45 255 0 min 9 lux -5,3 C -3,9 C
18.01.2012 17:42 0,5 C 1,5 C 0,0 C 65 % 1026 hPa 0,0 l/m 5,9 m/s (4 Bft) W-SW45 250 0 min 8 lux -5,3 C -9,5 C
18.01.2012 17:47 0,5 C 1,5 C 0,0 C 65 % 1026 hPa 0,0 l/m 4,8 m/s (3 Bft) W45 260 0 min 6 lux -5,3 C -7,6 C
18.01.2012 17:52 0,5 C 1,5 C -0,1 C 65 % 1026 hPa 0,0 l/m 4,8 m/s (3 Bft) W67.5 260 0 min 4 lux -5,3 C -7,6 C
18.01.2012 17:57 0,5 C 1,5 C 0,0 C 65 % 1026 hPa 0,0 l/m 3,9 m/s (3 Bft) W-SW22.5 255 0 min 4 lux -5,3 C -5,7 C
18.01.2012 18:02 0,5 C 1,4 C -0,2 C 65 % 1026 hPa 0,0 l/m 3,2 m/s (2 Bft) W-SW45 250 0 min 4 lux -5,3 C -4,1 C
18.01.2012 18:07 0,5 C 1,4 C -0,1 C 65 % 1026 hPa 0,0 l/m 4,6 m/s (3 Bft) W-SW22.5 255 0 min 3 lux -5,3 C -7,2 C
18.01.2012 18:12 0,5 C 1,4 C 0,0 C 65 % 1026 hPa 0,0 l/m 4,4 m/s (3 Bft) W-SW22.5 250 0 min 3 lux -5,3 C -7,0 C
18.01.2012 18:17 0,5 C 1,5 C -0,1 C 65 % 1026 hPa 0,0 l/m 3,4 m/s (2 Bft) W-SW45 250 0 min 3 lux -5,3 C -4,5 C
18.01.2012 18:22 0,5 C 1,5 C 0,0 C 65 % 1026 hPa 0,0 l/m 4,0 m/s (3 Bft) W45 260 0 min 3 lux -5,3 C -6,0 C
18.01.2012 18:27 0,5 C 1,5 C 0,0 C 65 % 1026 hPa 0,0 l/m 5,1 m/s (3 Bft) W45 260 0 min 1 lux -5,3 C -8,2 C
18.01.2012 18:32 0,5 C 1,5 C 0,0 C 65 % 1026 hPa 0,0 l/m 4,3 m/s (3 Bft) W-SW45 240 0 min 1 lux -5,3 C -6,6 C
18.01.2012 18:37 0,5 C 1,5 C -0,1 C 65 % 1026 hPa 0,0 l/m 2,9 m/s (2 Bft) W-SW45 255 0 min 1 lux -5,3 C -3,4 C
18.01.2012 18:42 0,5 C 1,5 C 0,0 C 65 % 1026 hPa 0,0 l/m 3,9 m/s (3 Bft) W-SW45 255 0 min 1 lux -5,3 C -5,9 C
18.01.2012 18:47 0,5 C 1,5 C 0,0 C 65 % 1026 hPa 0,0 l/m 3,5 m/s (3 Bft) W45 260 0 min 0 lux -5,3 C -4,8 C
18.01.2012 18:52 0,5 C 1,6 C 0,0 C 65 % 1026 hPa 0,0 l/m 3,5 m/s (3 Bft) W45 260 0 min 0 lux -5,3 C -4,8 C
18.01.2012 18:57 0,5 C 1,6 C 0,1 C 65 % 1025 hPa 0,0 l/m 4,0 m/s (3 Bft) W45 260 0 min 0 lux -5,3 C -6,1 C
18.01.2012 19:03 0,2 C 1,6 C 0,1 C 69 % 1025 hPa 0,0 l/m 4,4 m/s (3 Bft) W22.5 260 0 min 0 lux -4,8 C -7,3 C
18.01.2012 19:07 0,2 C 1,6 C 0,1 C 69 % 1025 hPa 0,0 l/m 4,1 m/s (3 Bft) W45 260 0 min 0 lux -4,8 C -6,5 C
18.01.2012 19:12 0,2 C 1,6 C 0,0 C 69 % 1025 hPa 0,0 l/m 5,8 m/s (4 Bft) W-SW45 250 0 min 0 lux -4,8 C -9,8 C
18.01.2012 19:17 0,2 C 1,6 C 0,0 C 69 % 1025 hPa 0,0 l/m 3,9 m/s (3 Bft) W-SW22.5 255 0 min 0 lux -4,8 C -6,2 C
18.01.2012 19:22 0,2 C 1,6 C 0,1 C 69 % 1025 hPa 0,0 l/m 5,4 m/s (3 Bft) W22.5 265 0 min 0 lux -4,8 C -9,2 C
18.01.2012 19:27 0,2 C 1,7 C 0,2 C 69 % 1025 hPa 0,0 l/m 4,2 m/s (3 Bft) W45 260 0 min 0 lux -4,8 C -6,8 C
18.01.2012 19:32 0,2 C 1,7 C 0,1 C 69 % 1025 hPa 0,0 l/m 4,6 m/s (3 Bft) W45 260 0 min 0 lux -4,8 C -7,7 C
18.01.2012 19:38 0,2 C 1,7 C 0,1 C 69 % 1025 hPa 0,0 l/m 3,3 m/s (2 Bft) W45 260 0 min 0 lux -4,8 C -4,6 C
18.01.2012 19:42 0,2 C 1,7 C 0,0 C 69 % 1025 hPa 0,0 l/m 5,1 m/s (3 Bft) W-SW45 250 0 min 0 lux -4,8 C -8,6 C
18.01.2012 19:47 0,2 C 1,7 C 0,1 C 69 % 1025 hPa 0,0 l/m 4,1 m/s (3 Bft) W-SW45 255 0 min 0 lux -4,8 C -6,6 C
18.01.2012 19:52 0,2 C 1,7 C 0,2 C 69 % 1025 hPa 0,0 l/m 4,3 m/s (3 Bft) W-SW45 250 0 min 0 lux -4,8 C -7,0 C
18.01.2012 19:57 0,3 C 1,8 C 0,1 C 69 % 1025 hPa 0,0 l/m 3,6 m/s (3 Bft) W-SW45 255 0 min 0 lux -4,7 C -5,4 C
18.01.2012 20:02 0,2 C 1,8 C 0,2 C 70 % 1025 hPa 0,0 l/m 4,6 m/s (3 Bft) W22.5 260 0 min 0 lux -4,6 C -7,6 C
18.01.2012 20:07 0,3 C 1,8 C 0,1 C 70 % 1025 hPa 0,0 l/m 3,6 m/s (3 Bft) W-SW45 250 0 min 0 lux -4,5 C -5,2 C
18.01.2012 20:12 0,3 C 1,9 C 0,1 C 70 % 1025 hPa 0,0 l/m 2,8 m/s (2 Bft) W-SW45 250 0 min 0 lux -4,5 C -3,2 C
18.01.2012 20:17 0,3 C 1,9 C 0,1 C 70 % 1025 hPa 0,0 l/m 4,3 m/s (3 Bft) W-SW45 255 0 min 0 lux -4,5 C -6,8 C
18.01.2012 20:22 0,3 C 1,9 C 0,0 C 70 % 1025 hPa 0,0 l/m 2,9 m/s (2 Bft) W-SW45 255 0 min 0 lux -4,5 C -3,4 C
18.01.2012 20:27 0,3 C 1,9 C 0,0 C 70 % 1025 hPa 0,0 l/m 0,3 m/s (1 Bft) W-SW22.5 250 0 min 0 lux -4,5 C 0,3 C
18.01.2012 20:32 0,3 C 1,8 C -0,1 C 70 % 1024 hPa 0,4 l/m 0,4 m/s (1 Bft) SW22.5 230 0 min 0 lux -4,5 C 0,3 C
18.01.2012 20:37 0,4 C 1,8 C -0,1 C 70 % 1024 hPa 0,4 l/m 1,3 m/s (1 Bft) SW 235 0 min 0 lux -4,4 C 0,4 C
18.01.2012 20:42 0,3 C 1,8 C -0,1 C 70 % 1024 hPa 0,4 l/m 1,7 m/s (2 Bft) SW22.5 235 0 min 0 lux -4,5 C 0,3 C
18.01.2012 20:47 0,3 C 1,8 C 0,0 C 71 % 1024 hPa 0,0 l/m 3,2 m/s (2 Bft) W-SW45 240 0 min 0 lux -4,3 C -4,2 C
18.01.2012 20:52 0,3 C 1,7 C 0,0 C 71 % 1024 hPa 0,0 l/m 2,8 m/s (2 Bft) W-SW45 250 0 min 0 lux -4,3 C -3,1 C
18.01.2012 20:57 0,3 C 1,7 C 0,0 C 71 % 1024 hPa 0,0 l/m 3,5 m/s (3 Bft) W-SW22.5 250 0 min 0 lux -4,3 C -5,0 C
18.01.2012 21:02 0,3 C 1,7 C 0,0 C 71 % 1024 hPa 0,0 l/m 3,2 m/s (2 Bft) W-SW45 250 0 min 0 lux -4,3 C -4,2 C
18.01.2012 21:07 0,3 C 1,7 C 0,1 C 72 % 1024 hPa 0,0 l/m 4,3 m/s (3 Bft) W-SW45 255 0 min 0 lux -4,1 C -6,9 C
18.01.2012 21:12 0,3 C 1,7 C 0,1 C 72 % 1024 hPa 0,0 l/m 3,2 m/s (2 Bft) W-SW45 255 0 min 0 lux -4,1 C -4,4 C
18.01.2012 21:17 0,3 C 1,7 C 0,0 C 72 % 1024 hPa 0,0 l/m 1,8 m/s (2 Bft) W-SW22.5 250 0 min 0 lux -4,1 C 0,3 C
18.01.2012 21:22 0,4 C 1,7 C 0,0 C 72 % 1024 hPa 0,0 l/m 2,9 m/s (2 Bft) W-SW22.5 250 0 min 0 lux -4,0 C -3,4 C
18.01.2012 21:27 0,3 C 1,7 C 0,0 C 72 % 1024 hPa 0,0 l/m 3,2 m/s (2 Bft) W-SW22.5 250 0 min 0 lux -4,1 C -4,3 C
18.01.2012 21:32 0,3 C 1,7 C 0,1 C 73 % 1024 hPa 0,0 l/m 3,8 m/s (3 Bft) W45 265 0 min 0 lux -4,0 C -5,7 C
18.01.2012 21:37 0,3 C 1,8 C 0,1 C 73 % 1024 hPa 0,0 l/m 4,0 m/s (3 Bft) W45 265 0 min 0 lux -4,0 C -6,3 C
18.01.2012 21:42 0,3 C 1,8 C 0,2 C 73 % 1024 hPa 0,0 l/m 4,6 m/s (3 Bft) W22.5 270 0 min 0 lux -4,0 C -7,4 C
18.01.2012 21:47 0,3 C 1,8 C 0,1 C 73 % 1024 hPa 0,0 l/m 3,1 m/s (2 Bft) W45 260 0 min 0 lux -4,0 C -4,1 C
18.01.2012 21:52 0,3 C 1,8 C 0,2 C 73 % 1024 hPa 0,0 l/m 4,3 m/s (3 Bft) W45 260 0 min 0 lux -4,0 C -6,9 C
18.01.2012 21:57 0,3 C 1,8 C 0,2 C 73 % 1024 hPa 0,0 l/m 3,4 m/s (2 Bft) W-SW45 250 0 min 0 lux -4,0 C -4,7 C
18.01.2012 22:02 0,3 C 1,8 C 0,1 C 73 % 1024 hPa 0,0 l/m 3,2 m/s (2 Bft) W-SW22.5 255 0 min 0 lux -4,0 C -4,4 C
18.01.2012 22:07 0,3 C 1,8 C 0,1 C 73 % 1024 hPa 0,0 l/m 3,1 m/s (2 Bft) W22.5 275 0 min 0 lux -4,0 C -4,0 C
18.01.2012 22:12 0,3 C 1,8 C 0,2 C 73 % 1024 hPa 0,0 l/m 2,5 m/s (2 Bft) W45 265 0 min 0 lux -4,0 C -2,2 C
18.01.2012 22:17 0,3 C 1,8 C 0,2 C 73 % 1024 hPa 0,0 l/m 3,9 m/s (3 Bft) W-SW22.5 255 0 min 0 lux -4,0 C -6,1 C
18.01.2012 22:22 0,3 C 1,8 C 0,2 C 73 % 1024 hPa 0,0 l/m 4,2 m/s (3 Bft) W-SW45 255 0 min 0 lux -4,0 C -6,6 C
18.01.2012 22:27 0,4 C 1,8 C 0,2 C 74 % 1024 hPa 0,0 l/m 3,0 m/s (2 Bft) W-SW22.5 255 0 min 0 lux -3,7 C -3,7 C
18.01.2012 22:32 0,4 C 1,9 C 0,3 C 74 % 1024 hPa 0,0 l/m 4,3 m/s (3 Bft) W-SW22.5 250 0 min 0 lux -3,7 C -6,8 C
18.01.2012 22:37 0,6 C 1,9 C 0,2 C 75 % 1024 hPa 0,0 l/m 3,0 m/s (2 Bft) W45 260 0 min 0 lux -3,3 C -3,3 C
18.01.2012 22:42 0,5 C 1,9 C 0,3 C 75 % 1024 hPa 0,0 l/m 4,6 m/s (3 Bft) W22.5 260 0 min 0 lux -3,4 C -7,3 C
18.01.2012 22:47 0,5 C 1,9 C 0,3 C 75 % 1023 hPa 0,0 l/m 3,6 m/s (3 Bft) W22.5 260 0 min 0 lux -3,4 C -5,1 C
18.01.2012 22:52 0,5 C 1,9 C 0,4 C 75 % 1023 hPa 0,4 l/m 4,0 m/s (3 Bft) W45 275 0 min 0 lux -3,4 C -6,1 C
18.01.2012 22:57 0,5 C 2,0 C 0,4 C 75 % 1024 hPa 0,0 l/m 3,9 m/s (3 Bft) W22.5 265 0 min 0 lux -3,4 C -5,7 C
18.01.2012 23:02 0,5 C 2,0 C 0,4 C 75 % 1024 hPa 0,0 l/m 4,2 m/s (3 Bft) W-SW22.5 255 0 min 0 lux -3,4 C -6,4 C
18.01.2012 23:07 0,5 C 2,0 C 0,3 C 75 % 1024 hPa 0,0 l/m 2,9 m/s (2 Bft) W-SW45 250 0 min 0 lux -3,4 C -3,4 C
18.01.2012 23:12 0,5 C 2,0 C 0,4 C 75 % 1024 hPa 0,0 l/m 3,5 m/s (3 Bft) W45 260 0 min 0 lux -3,4 C -4,8 C
18.01.2012 23:17 0,5 C 2,1 C 0,4 C 75 % 1024 hPa 0,0 l/m 3,8 m/s (3 Bft) W22.5 260 0 min 0 lux -3,4 C -5,5 C
18.01.2012 23:22 0,5 C 2,1 C 0,4 C 75 % 1024 hPa 0,0 l/m 3,9 m/s (3 Bft) W22.5 260 0 min 0 lux -3,4 C -5,8 C
18.01.2012 23:27 0,5 C 2,1 C 0,4 C 75 % 1024 hPa 0,0 l/m 4,6 m/s (3 Bft) W22.5 265 0 min 0 lux -3,4 C -7,2 C
18.01.2012 23:32 0,5 C 2,1 C 0,6 C 75 % 1024 hPa 0,0 l/m 4,1 m/s (3 Bft) W45 260 0 min 0 lux -3,4 C -6,3 C
18.01.2012 23:37 0,5 C 2,1 C 0,5 C 76 % 1024 hPa 0,0 l/m 4,8 m/s (3 Bft) W45 265 0 min 0 lux -3,2 C -7,7 C
18.01.2012 23:42 0,6 C 2,1 C 0,5 C 76 % 1024 hPa 0,0 l/m 4,0 m/s (3 Bft) W22.5 260 0 min 0 lux -3,1 C -6,0 C
18.01.2012 23:47 0,6 C 2,1 C 0,5 C 76 % 1024 hPa 0,0 l/m 3,5 m/s (3 Bft) W22.5 270 0 min 0 lux -3,1 C -4,7 C
18.01.2012 23:52 0,6 C 2,1 C 0,5 C 76 % 1024 hPa 0,0 l/m 4,4 m/s (3 Bft) W-SW22.5 250 0 min 0 lux -3,1 C -6,8 C
18.01.2012 23:57 0,6 C 2,1 C 0,5 C 76 % 1023 hPa 0,0 l/m 4,1 m/s (3 Bft) W-SW45 250 0 min 0 lux -3,1 C -6,2 C
_ Min-Zeit 07:32 07:37 07:32 05:12 22:47 - 00:02 - - - - 07:32 17:02
Minimum _ -7,2 C -8,3 C -7,9 C 58 % 1023 hPa - 0,0 m/s (0 Bft) - - - - -14,0 C -10,3 C
_ Max-Zeit 14:52 14:37 14:47 23:37 00:02 20:32 17:02 - - 14:13 11:47 23:42 14:37
Maximum _ 1,0 C 3,3 C 0,7 C 76 % 1030 hPa 0,4 l/m 6,4 m/s
W-SW (4 Bft)
- - 6 min 39,7 klux -3,1 C 0,9 C
Durchschnitt _ -2,9 C -2,5 C -3,2 C 63 % 1027 hPa #1,4 l/m 1,5 m/s (1 Bft) W-SW - #4:01 h 6,04 klux -8,9 C -5,2 C